Rochester/St. Mary\'s Hospita, MN
on Thursday, December 12, 2013

Thursday
Previous Day Next Day
Daily Summary
 ActualAverage (KRST)Record (KRST)
Temperature
Mean Temperature °F °F  
Max Temperature 22°F 28°F 58°F (1968)
Min Temperature 2°F 11°F -20°F (1958)
Degree Days
Heating Degree Days 53    
Moisture
Dew Point 6°F   
Average Humidity 70    
Maximum Humidity 79    
Minimum Humidity 59    
Precipitation
Precipitation 0.00 in in in ()
Wind
Wind Speed 7 mph   
Max Wind Speed 12 mph   
Max Gust Speed 22 mph   
Visibility 10 miles   
Events     
Averages and records for this station are not official NWS values.
Key: T is trace of precipitation, MM is missing value
Source: NWS Daily Summary
Seasonal Weather Averages
Time(CST)TemperatureDew PointHumidity Pressure Visibility Wind DirectionWind SpeedGust SpeedPrecipitationEvents Conditions
12:13 AM 2.5°F -6.9°F 65% 30.33 in 10.0 miles South 8.1 mph - N/A   Overcast
12:33 AM 2.8°F -6.9°F 64% 30.30 in 10.0 miles SSE 8.1 mph 17.3 mph N/A   Overcast
12:53 AM 3.0°F -6.7°F 64% 30.28 in 10.0 miles SSE 11.5 mph 17.3 mph N/A   Overcast
1:13 AM 3.2°F -6.0°F 66% 30.28 in 10.0 miles SSE 10.4 mph 19.6 mph N/A   Overcast
1:33 AM 3.4°F -5.6°F 66% 30.27 in 10.0 miles South 10.4 mph - N/A   Overcast
1:54 AM 4.5°F -4.9°F 65% 30.26 in 10.0 miles South 10.4 mph - N/A   Overcast
2:13 AM 5.4°F -4.4°F 64% 30.26 in 10.0 miles SSW 11.5 mph 20.7 mph N/A   Overcast
2:33 AM 5.2°F -4.5°F 64% 30.25 in 10.0 miles South 11.5 mph 19.6 mph N/A   Overcast
2:54 AM 5.5°F -3.8°F 65% 30.25 in 10.0 miles SSW 5.8 mph 16.1 mph N/A   Overcast
3:13 AM 6.1°F -3.1°F 66% 30.25 in 10.0 miles SSW 11.5 mph 16.1 mph N/A   Overcast
3:33 AM 5.2°F -3.6°F 67% 30.24 in 10.0 miles SSW 11.5 mph 21.9 mph N/A   Overcast
3:54 AM 6.3°F -2.4°F 68% 30.23 in 10.0 miles SW 8.1 mph - N/A   Overcast
4:13 AM 6.6°F -1.7°F 69% 30.23 in 10.0 miles SW 8.1 mph - N/A   Overcast
4:33 AM 7.5°F -0.8°F 69% 30.22 in 10.0 miles SW 6.9 mph - N/A   Overcast
4:54 AM 7.2°F -0.9°F 69% 30.22 in 10.0 miles SW 6.9 mph 17.3 mph N/A   Scattered Clouds
5:13 AM 7.7°F -0.2°F 70% 30.22 in 10.0 miles WSW 8.1 mph - N/A   Clear
5:33 AM 7.5°F -0.4°F 70% 30.22 in 10.0 miles WSW 6.9 mph 18.4 mph N/A   Clear
5:54 AM 8.1°F 0.9°F 72% 30.22 in 10.0 miles WSW 8.1 mph - N/A   Clear
6:13 AM 8.2°F 1.2°F 73% 30.22 in 10.0 miles WSW 9.2 mph - N/A   Clear
6:33 AM 9.1°F 2.3°F 74% 30.21 in 10.0 miles WSW 5.8 mph - N/A   Clear
6:53 AM 9.5°F 3.0°F 75% 30.22 in 10.0 miles WSW 6.9 mph - N/A   Clear
7:13 AM 10.0°F 3.6°F 75% 30.22 in 10.0 miles West 6.9 mph - N/A   Clear
7:33 AM 10.0°F 3.4°F 74% 30.21 in 10.0 miles WSW 5.8 mph - N/A   Clear
7:53 AM 10.0°F 3.7°F 76% 30.22 in 10.0 miles West 6.9 mph - N/A   Clear
8:13 AM 10.8°F 3.9°F 74% 30.24 in 10.0 miles WSW 8.1 mph - N/A   Clear
8:34 AM 11.1°F 4.6°F 75% 30.24 in 10.0 miles WSW 6.9 mph - N/A   Clear
8:53 AM 11.3°F 4.8°F 75% 30.24 in 10.0 miles West 5.8 mph - N/A   Clear
9:13 AM 12.6°F 5.9°F 75% 30.25 in 10.0 miles West 5.8 mph - N/A   Clear
9:33 AM 13.3°F 6.1°F 73% 30.24 in 10.0 miles WSW 8.1 mph - N/A   Clear
9:53 AM 14.4°F 7.0°F 73% 30.24 in 10.0 miles WSW 6.9 mph - N/A   Clear
10:13 AM 15.8°F 7.9°F 71% 30.24 in 10.0 miles West 6.9 mph - N/A   Clear
10:33 AM 16.0°F 7.9°F 70% 30.25 in 10.0 miles West 6.9 mph - N/A   Clear
10:53 AM 16.7°F 7.9°F 68% 30.26 in 10.0 miles WSW 8.1 mph - N/A   Clear
11:13 AM 16.9°F 7.5°F 67% 30.25 in 10.0 miles West 6.9 mph - N/A   Clear
11:33 AM 18.1°F 8.1°F 65% 30.24 in 10.0 miles WSW 9.2 mph - N/A   Clear
11:53 AM 18.5°F 8.1°F 64% 30.23 in 10.0 miles West 8.1 mph - N/A   Clear
12:13 PM 19.2°F 8.8°F 64% 30.23 in 10.0 miles WSW 9.2 mph - N/A   Clear
12:33 PM 19.2°F 8.6°F 63% 30.22 in 10.0 miles West 9.2 mph - N/A   Clear
12:53 PM 20.1°F 9.0°F 62% 30.22 in 10.0 miles West 11.5 mph - N/A   Clear
1:13 PM 20.8°F 9.5°F 62% 30.21 in 10.0 miles West 6.9 mph - N/A   Clear
1:33 PM 20.8°F 9.5°F 62% 30.20 in 10.0 miles WSW 8.1 mph - N/A   Clear
1:53 PM 22.5°F 10.2°F 59% 30.20 in 10.0 miles West 4.6 mph - N/A   Clear
2:14 PM 21.2°F 9.9°F 62% 30.19 in 10.0 miles WSW 8.1 mph - N/A   Clear
2:33 PM 21.0°F 10.4°F 64% 30.19 in 10.0 miles WSW 4.6 mph - N/A   Clear
2:53 PM 20.8°F 10.4°F 64% 30.17 in 10.0 miles West 5.8 mph - N/A   Clear
3:14 PM 21.6°F 10.9°F 64% 30.17 in 10.0 miles WSW 5.8 mph - N/A   Clear
3:33 PM 21.4°F 11.1°F 65% 30.17 in 10.0 miles WSW 4.6 mph - N/A   Clear
3:53 PM 21.2°F 11.1°F 65% 30.17 in 10.0 miles SW 4.6 mph - N/A   Clear
4:14 PM 22.5°F 12.6°F 66% 30.17 in 10.0 miles West 3.5 mph - N/A   Clear
4:33 PM 22.3°F 12.7°F 67% 30.17 in 10.0 miles WSW 4.6 mph - N/A   Clear
4:53 PM 21.2°F 12.0°F 68% 30.18 in 10.0 miles WSW 3.5 mph - N/A   Mostly Cloudy
5:14 PM 20.3°F 12.2°F 71% 30.18 in 10.0 miles West 3.5 mph - N/A   Overcast
5:33 PM 21.6°F 12.9°F 69% 30.17 in 10.0 miles SW 4.6 mph - N/A   Overcast
5:53 PM 20.8°F 12.7°F 71% 30.16 in 10.0 miles SW 4.6 mph - N/A   Overcast
6:14 PM 20.7°F 12.6°F 71% 30.16 in 10.0 miles Calm Calm - N/A   Overcast
6:33 PM 20.5°F 12.7°F 72% 30.16 in 10.0 miles SSW 4.6 mph - N/A   Mostly Cloudy
6:53 PM 18.7°F 11.5°F 74% 30.15 in 10.0 miles South 5.8 mph - N/A   Scattered Clouds
7:14 PM 18.5°F 11.8°F 75% 30.14 in 10.0 miles South 5.8 mph - N/A   Clear
7:33 PM 18.1°F 11.7°F 76% 30.14 in 10.0 miles South 8.1 mph - N/A   Clear
7:53 PM 17.6°F 11.7°F 78% 30.13 in 10.0 miles South 5.8 mph - N/A   Clear
8:13 PM 17.8°F 12.0°F 78% 30.14 in 10.0 miles SSW 5.8 mph - N/A   Clear
8:33 PM 18.9°F 12.4°F 76% 30.13 in 10.0 miles SW 8.1 mph - N/A   Clear
8:53 PM 17.1°F 11.3°F 78% 30.12 in 10.0 miles South 4.6 mph - N/A   Clear
9:13 PM 18.0°F 12.4°F 79% 30.11 in 10.0 miles SW 3.5 mph - N/A   Clear
9:33 PM 18.5°F 12.6°F 78% 30.11 in 10.0 miles SSW 5.8 mph - N/A   Mostly Cloudy
9:53 PM 18.3°F 12.2°F 77% 30.11 in 10.0 miles SSW 4.6 mph - N/A   Overcast
10:13 PM 17.6°F 11.8°F 78% 30.11 in 10.0 miles Calm Calm - N/A   Overcast
10:33 PM 18.5°F 12.4°F 77% 30.11 in 10.0 miles Calm Calm - N/A   Overcast
10:53 PM 18.5°F 12.7°F 78% 30.11 in 10.0 miles Calm Calm - N/A   Overcast
11:13 PM 18.1°F 12.2°F 78% 30.11 in 10.0 miles Calm Calm - N/A   Overcast
11:33 PM 19.2°F 13.1°F 77% 30.11 in 10.0 miles Calm Calm - N/A   Overcast
11:53 PM 19.0°F 13.5°F 79% 30.11 in 10.0 miles Calm Calm - N/A   Overcast
Astronomy
Sunrise:07:35 AM (CST) Moon Rise:01:46 PM (CST)12/12
Sunset:04:31 PM (CST) Moon Set:02:51 AM (CST)12/12
Moon Phase
Dec. 12 Dec. 17 Dec. 25 Jan. 01 Jan. 08

Copyright © 2017 The Weather Underground, Inc.